Weather History for Monett, MO

Change the Weather History Date:

Wednesday, June 26, 2013

  Actual Average (KJLN) Record (KJLN)
Temperature  
Mean Temperature 81 °F 78 °F  
Max Temperature 89 °F 88 °F 100 °F (1952)
Min Temperature 73 °F 68 °F 50 °F (1958)
Degree Days  
Heating Degree Days 0 0  
Month to date heating degree days 2  
Since 1 June heating degree days 2  
Since 1 July heating degree days 4071  
Cooling Degree Days 16 13  
Month to date cooling degree days 264  
Year to date cooling degree days 444  
Since 1 June cooling degree days 264  
Growing Degree Days 31 (Base 50)    
Moisture  
Dew Point 71 °F    
Average Humidity 71    
Maximum Humidity 94    
Minimum Humidity 58    
Precipitation  
Precipitation 0.00 in 0.18 in 2.35 in (1948)
Month to date precipitation 5.19  
Year to date precipitation 23.14  
Snow  
Snow 0.00 in - - ()
Month to date snowfall  
Since 1 June snowfall  
Since 1 July snowfall  
Snow Depth -    
Sea Level Pressure  
Sea Level Pressure 29.89 in    
Wind  
Wind Speed 11 mph (SW)    
Max Wind Speed 21 mph    
Max Gust Speed 26 mph    
Visibility 10 miles    
Events      
T = Trace of Precipitation, MM = Missing Value Source: NWS Daily Summary

Daily Weather History Graph

Daily Weather History Graph

Search for Another Location

Airport:

Trip Planner

Search our weather history database for the weather conditions in past years. The results will help you decide how hot, cold, wet, or windy it might be!

Date:

Astronomy

Jun. 26, 2013 Rise Set
Actual Time 5:58 AM CDT 8:39 PM CDT
Civil Twilight 5:27 AM CDT 9:10 PM CDT
Nautical Twilight 4:49 AM CDT 9:48 PM CDT
Astronomical Twilight 4:06 AM CDT 10:31 PM CDT
Moon 11:09 PM CDT (6/26) 9:45 AM CDT (6/26)
Length of Visible Light 15h 42m
Length of Day
14h 40m
Waning Gibbous, 85% of the Moon is Illuminated
Jun 26
Waning Gibbous
Jun 29
Last Quarter
Jul 8
New
Jul 15
First Quarter
Jul 22
Full

Hourly Weather History & Observations

Time (CDT) Temp. Heat Index Dew Point Humidity Pressure Visibility Wind Dir Wind Speed Gust Speed Precip Events Conditions
12:15 AM 75.2 °F - 68.0 °F 78% 29.87 in 10.0 mi South 9.2 mph - N/A   Clear
12:35 AM 75.2 °F - 68.0 °F 78% 29.88 in 10.0 mi South 9.2 mph - N/A   Clear
12:55 AM 73.4 °F - 68.0 °F 83% 29.88 in 10.0 mi South 8.1 mph - N/A   Clear
1:15 AM 73.4 °F - 68.0 °F 83% 29.87 in 10.0 mi South 8.1 mph - N/A   Clear
1:35 AM 73.4 °F - 68.0 °F 83% 29.86 in 10.0 mi South 9.2 mph - N/A   Clear
1:55 AM 73.4 °F - 68.0 °F 83% 29.86 in 10.0 mi South 8.1 mph - N/A   Clear
2:15 AM 73.4 °F - 68.0 °F 83% 29.86 in 10.0 mi South 9.2 mph - N/A   Clear
2:35 AM 73.4 °F - 68.0 °F 83% 29.85 in 10.0 mi South 10.4 mph - N/A   Clear
2:55 AM 73.4 °F - 68.0 °F 83% 29.84 in 10.0 mi South 12.7 mph - N/A   Clear
3:15 AM 75.2 °F - 68.0 °F 78% 29.84 in 10.0 mi South 13.8 mph - N/A   Clear
3:35 AM 75.2 °F - 68.0 °F 78% 29.84 in 10.0 mi SSW 13.8 mph - N/A   Clear
3:55 AM 75.2 °F - 68.0 °F 78% 29.84 in 10.0 mi SSW 15.0 mph 21.9 mph N/A   Clear
4:15 AM 75.2 °F - 68.0 °F 78% 29.84 in 10.0 mi SSW 13.8 mph 19.6 mph N/A   Clear
4:35 AM 77.0 °F - 68.0 °F 74% 29.84 in 10.0 mi SSW 12.7 mph 21.9 mph N/A   Clear
4:55 AM 77.0 °F - 68.0 °F 74% 29.84 in 10.0 mi SSW 13.8 mph - N/A   Clear
5:15 AM 77.0 °F - 68.0 °F 74% 29.84 in 10.0 mi SSW 13.8 mph - N/A   Clear
5:35 AM 77.0 °F - 68.0 °F 74% 29.84 in 10.0 mi SSW 15.0 mph 20.7 mph N/A   Clear
5:55 AM 77.0 °F - 68.0 °F 74% 29.85 in 10.0 mi SSW 15.0 mph - N/A   Clear
6:15 AM 77.0 °F - 68.0 °F 74% 29.86 in 10.0 mi SSW 12.7 mph 18.4 mph N/A   Clear
6:35 AM 77.0 °F - 68.0 °F 74% 29.86 in 10.0 mi SSW 13.8 mph - N/A   Clear
6:55 AM 77.0 °F - 68.0 °F 74% 29.87 in 10.0 mi SW 13.8 mph 20.7 mph N/A   Clear
7:15 AM 77.0 °F - 68.0 °F 74% 29.87 in 10.0 mi SW 15.0 mph - N/A   Clear
7:35 AM 78.8 °F - 68.0 °F 69% 29.88 in 10.0 mi SW 15.0 mph 19.6 mph N/A   Clear
7:55 AM 78.8 °F - 68.0 °F 69% 29.88 in 10.0 mi SSW 18.4 mph 24.2 mph N/A   Clear
8:15 AM 78.8 °F - 68.0 °F 69% 29.88 in 10.0 mi SW 18.4 mph 25.3 mph N/A   Clear
8:35 AM 80.6 °F 83.9 °F 69.8 °F 70% 29.88 in 10.0 mi SW 20.7 mph 26.5 mph N/A   Clear
8:55 AM 80.6 °F 83.9 °F 69.8 °F 70% 29.88 in 10.0 mi SW 19.6 mph 26.5 mph N/A   Clear
9:15 AM 80.6 °F 83.9 °F 69.8 °F 70% 29.88 in 10.0 mi SW 18.4 mph 25.3 mph N/A   Clear
9:55 AM 82.4 °F 86.3 °F 69.8 °F 66% 29.90 in 10.0 mi SW 18.4 mph 25.3 mph N/A   Clear
10:15 AM 82.4 °F 86.3 °F 69.8 °F 66% 29.89 in 10.0 mi SW 18.4 mph - N/A   Clear
10:35 AM 84.2 °F 88.4 °F 69.8 °F 62% 29.90 in 10.0 mi SW 16.1 mph 23.0 mph N/A   Clear
10:55 AM 84.2 °F 88.4 °F 69.8 °F 62% 29.90 in 10.0 mi SW 15.0 mph 21.9 mph N/A   Clear
11:15 AM 86.0 °F 90.4 °F 69.8 °F 58% 29.91 in 10.0 mi SW 17.3 mph 23.0 mph N/A   Clear
11:35 AM 86.0 °F 91.8 °F 71.6 °F 62% 29.91 in 10.0 mi SW 13.8 mph 19.6 mph N/A   Clear
11:55 AM 86.0 °F 91.8 °F 71.6 °F 62% 29.91 in 10.0 mi SW 11.5 mph 19.6 mph N/A   Clear
12:15 PM 86.0 °F 91.8 °F 71.6 °F 62% 29.92 in 10.0 mi SSW 15.0 mph - N/A   Clear
12:35 PM 87.8 °F 93.8 °F 71.6 °F 58% 29.92 in 10.0 mi SW 9.2 mph 20.7 mph N/A   Clear
12:55 PM 87.8 °F 93.8 °F 71.6 °F 58% 29.92 in 10.0 mi SW 13.8 mph - N/A   Clear
1:15 PM 87.8 °F 93.8 °F 71.6 °F 58% 29.92 in 10.0 mi WSW 9.2 mph 17.3 mph N/A   Clear
1:35 PM 87.8 °F 93.8 °F 71.6 °F 58% 29.92 in 10.0 mi WSW 9.2 mph - N/A   Clear
1:55 PM 87.8 °F 93.8 °F 71.6 °F 58% 29.91 in 10.0 mi WSW 11.5 mph - N/A   Clear
2:15 PM 89.6 °F 98.2 °F 73.4 °F 59% 29.91 in 10.0 mi WSW 11.5 mph - N/A   Clear
2:35 PM 89.6 °F 98.2 °F 73.4 °F 59% 29.91 in 10.0 mi WSW 10.4 mph - N/A   Clear
2:55 PM 89.6 °F 98.2 °F 73.4 °F 59% 29.91 in 10.0 mi WSW 9.2 mph - N/A   Clear
3:15 PM 89.6 °F 98.2 °F 73.4 °F 59% 29.91 in 10.0 mi SW 11.5 mph - N/A   Clear
3:35 PM 89.6 °F 98.2 °F 73.4 °F 59% 29.90 in 10.0 mi SW 11.5 mph 16.1 mph N/A   Clear
3:55 PM 89.6 °F 98.2 °F 73.4 °F 59% 29.90 in 10.0 mi WSW 10.4 mph - N/A   Clear
4:15 PM 89.6 °F 98.2 °F 73.4 °F 59% 29.90 in 10.0 mi WSW 9.2 mph - N/A   Clear
4:35 PM 89.6 °F 98.2 °F 73.4 °F 59% 29.90 in 10.0 mi SW 10.4 mph - N/A   Clear
4:55 PM 89.6 °F 98.2 °F 73.4 °F 59% 29.89 in 10.0 mi WSW 10.4 mph - N/A   Clear
5:15 PM 89.6 °F 98.2 °F 73.4 °F 59% 29.89 in 10.0 mi SW 8.1 mph - N/A   Clear
5:35 PM 89.6 °F 98.2 °F 73.4 °F 59% 29.89 in 10.0 mi SW 9.2 mph - N/A   Clear
5:55 PM 89.6 °F 98.2 °F 73.4 °F 59% 29.88 in 10.0 mi SW 10.4 mph - N/A   Clear
6:15 PM 89.6 °F 98.2 °F 73.4 °F 59% 29.88 in 10.0 mi WSW 11.5 mph - N/A   Clear
6:35 PM 87.8 °F 95.6 °F 73.4 °F 62% 29.89 in 10.0 mi SW 8.1 mph - N/A   Clear
6:55 PM 87.8 °F 97.6 °F 75.2 °F 66% 29.90 in 10.0 mi SW 8.1 mph - N/A   Clear
7:15 PM 87.8 °F 97.6 °F 75.2 °F 66% 29.90 in 10.0 mi SW 5.8 mph - N/A   Clear
7:35 PM 86.0 °F 95.1 °F 75.2 °F 70% 29.90 in 10.0 mi West 3.5 mph - N/A   Clear
7:55 PM 86.0 °F 95.1 °F 75.2 °F 70% 29.91 in 10.0 mi Calm Calm - N/A   Clear
8:15 PM 84.2 °F 94.1 °F 77.0 °F 79% 29.91 in 10.0 mi SW 3.5 mph - N/A   Clear
8:35 PM 82.4 °F 90.9 °F 77.0 °F 84% 29.91 in 10.0 mi Calm Calm - N/A   Clear
8:55 PM 80.6 °F 86.2 °F 75.2 °F 84% 29.92 in 10.0 mi SW 4.6 mph - N/A   Clear
9:15 PM 80.6 °F 86.2 °F 75.2 °F 84% 29.91 in 10.0 mi Calm Calm - N/A   Clear
9:35 PM 78.8 °F - 75.2 °F 89% 29.92 in 10.0 mi SW 3.5 mph - N/A   Clear
9:55 PM 78.8 °F - 75.2 °F 89% 29.93 in 10.0 mi WSW 3.5 mph - N/A   Clear
10:15 PM 77.0 °F - 73.4 °F 89% 29.93 in 10.0 mi SSW 3.5 mph - N/A   Clear
10:35 PM 77.0 °F - 75.2 °F 94% 29.94 in 10.0 mi South 3.5 mph - N/A   Clear
10:55 PM 77.0 °F - 73.4 °F 89% 29.94 in 10.0 mi SSW 5.8 mph - N/A   Clear
11:15 PM 77.0 °F - 73.4 °F 89% 29.95 in 10.0 mi SW 3.5 mph - N/A   Clear
11:35 PM 77.0 °F - 73.4 °F 89% 29.95 in 10.0 mi SSW 3.5 mph - N/A   Clear
11:55 PM 77.0 °F - 73.4 °F 89% 29.95 in 10.0 mi SSW 4.6 mph - N/A   Clear